Regional Weather Roundup
Issued by NWS

Home | Current Version | Previous Version | Graphics & Text | Print | Product List | Glossary On
Versions: 1 2 3 4 5 6 7 8 9 10 11 12 13 14 15 16 17 18 19 20 21 22 23 24 25 26 27 28 29 30 31 32 33 34 35 36 37 38 39 40 41 42 43 44 45 46 47 48 49 50
000
ASUS45 KCYS 070110
RWRWY

WYOMING REGIONAL WEATHER ROUNDUP
NATIONAL WEATHER SERVICE CHEYENNE WY
700 PM MDT MON JUL 06 2015

NOTE:  "FAIR" INDICATES FEW OR NO CLOUDS BELOW 12,000 FEET
WITH NO SIGNIFICANT WEATHER AND/OR OBSTRUCTIONS TO VISIBILITY.

WYZ001-070200-
YELLOWSTONE NATIONAL PARK

CITY           SKY/WX    TMP DP  RH WIND       PRES   REMARKS
LK YELLOWSTONE   N/A     65  49  56 E5        30.30F
W YELLOWSTONE  NOT AVBL

$$
WYZ002>013-054>058-071-098>099-070200-
NORTHERN WYOMING

CITY           SKY/WX    TMP DP  RH WIND       PRES   REMARKS
JACKSON        MOSUNNY   66  54  63 CALM      30.20F
CODY           PTSUNNY   66  48  52 S8        30.19S
GREYBULL       FAIR      76  46  34 CALM      30.11F
WORLAND        FAIR      74  51  44 NW6       30.14S
SHERIDAN       FAIR      66  54  65 E5        30.18F
BUFFALO        FAIR      63  53  70 SE8       30.23F
GILLETTE       PTSUNNY   67  53  61 NE8       30.20F
HULETT         MOCLDY    66  52  59 NE3       30.23S
NEWCASTLE      FAIR      66  52  59 S8        30.21S

$$
WYZ014>020-022>026-101>103-070200-
CENTRAL WYOMING

CITY           SKY/WX    TMP DP  RH WIND       PRES   REMARKS
BIG PINEY      PTSUNNY   56  52  86 NW7       30.27F
PINEDALE       FAIR      54  52  94 CALM      30.27F
DUBOIS         LGT RAIN  55  50  82 SE7       30.30R
LANDER         LGT RAIN  60  56  86 S10       30.21F
RIVERTON       PTSUNNY   68  50  52 NE3       30.21F
CASPER         FAIR      66  50  56 E14       30.21F
DOUGLAS        FAIR      62  53  72 SE13      30.24F

$$
WYZ021-027>030-104>119-070200-
SOUTHERN WYOMING

CITY           SKY/WX    TMP DP  RH WIND       PRES   REMARKS
EVANSTON       FAIR      67  51  56 N7        30.25R
KEMMERER       FAIR      61  50  67 N12       30.26S
FORT BRIDGER   PTCLDY    59  54  82 NE10      30.30R
ROCK SPRINGS   TSTM      53  51  93 N10       30.27R VSB 1/2
DIXON          FAIR      74  48  40 NE13      30.19S
RAWLINS        FAIR      70  52  52 NE14      30.23F
SARATOGA       FAIR      68  50  52 NW7       30.23F
LARAMIE        CLOUDY    57  50  77 SE15      30.30S
CHEYENNE       CLOUDY    57  52  83 E6        30.29F HAZE
TORRINGTON     CLOUDY    65  53  65 NE3       30.21F HAZE
PINE BLUFFS    CLOUDY    61  52  72 NE3       30.26F HAZE

$$


USA.gov is the U.S. government's official web portal to all federal, state and local government web resources and services.